Weather Roundup
Issued by NWS Chicago, IL

Home | Current Version | Previous Version | Graphics & Text | Print | Product List | Glossary On
Versions: 1 2 3 4 5 6 7 8 9 10 11 12 13 14 15 16 17 18 19 20 21 22 23 24 25 26 27 28 29 30 31 32 33 34 35 36 37 38 39 40 41 42 43 44 45 46 47 48 49 50
000
NZUS59 KLOT 050412
HRRLOT

CHICAGO AREA WEATHER ROUNDUP
NATIONAL WEATHER SERVICE CHICAGO/ROMEOVILLE IL
1100 PM CDT MON MAY 04 2015

NOTE: "FAIR" INDICATES FEW OR NO CLOUDS BELOW 12,000 FEET WITH NO
SIGNIFICANT WEATHER AND/OR OBSTRUCTIONS TO VISIBILITY.

* THESE STATIONS ARE NOT UNDER NWS QUALITY CONTROL. THEY ALSO MAY NOT
  REPORT WEATHER SUCH AS PRECIPITATION OR FOG.

ILZ005-006-012>014-019>023-050500-
NORTHEAST ILLINOIS

CITY           SKY/WX    TMP DP  RH WIND       PRES   REMARKS
OHARE          CLOUDY    56  37  49 NE7       30.17F
MIDWAY         MOCLDY    59  39  47 NE8       30.17F
AURORA         CLOUDY    59  43  55 E12       30.16F
LANSING*       MOCLDY    53  47  82 CALM      30.18S
JOLIET*        CLOUDY    60  51  72 NE8       30.16S
WAUKEGAN       CLEAR     48  38  68 N5        30.19F
DUPAGE AIRPORT CLOUDY    57  38  48 E9        30.16F
WHEELING       MOCLDY    53  37  54 NE6       30.20F
KANKAKEE*      CLOUDY    59  58  96 NE7       30.15S FOG
MORRIS*        CLOUDY    61  53  76 E6        30.13S
LEWIS AIRPORT* MOCLDY    56  48  73 E9        30.16S
NORTHERLY IS     N/A     53  38  56 N6          N/A
$$

WIZ051-052-058>065-066-070>072-050500-
SOUTHEAST WISCONSIN

CITY           SKY/WX    TMP DP  RH WIND       PRES   REMARKS
MILWAUKEE      PTCLDY    51  32  48 NE5       30.21R
KENOSHA*       CLEAR     50  38  63 N3        30.20S
RACINE*        CLEAR     51  35  54 N3        30.22S
BURLINGTON     PTCLDY    51  36  57 CALM      30.19S
WAUKESHA       CLEAR     50  34  53 NE5       30.21F
WEST BEND      MOCLDY    50  34  53 CALM      30.22R
$$

INZ001>003-010>013-019-020-050500-
NORTHWEST INDIANA

CITY           SKY/WX    TMP DP  RH WIND       PRES   REMARKS
GARY*          MOCLDY    52  46  79 NE3       30.17F
MICHIGAN CITY* NOT AVBL
RENSSELAER*    NOT AVBL
VALPARAISO     MOCLDY    59  55  87 NE6       30.17F
$$

LMZ740>746-050500-
SOUTHERN LAKE MICHIGAN

STATION/POSITION TIME  SKY/WX   TEMP WIND        PRES    VSBY
                                AIR  DIR/SP/G
                 (UTC)          (F)  (DEG/KT/KT) (MB)    (MI)
HARRISON CRIB    0300            49  350/  7/  7   N/A
BURNHAM HARBOR   0400            53  350/  4/  7   N/A
CALUMET HARBOR   0300            49  350/  3/  4   N/A
BURNS HARBOR     0300            53   70/  9/ 10 1022.4S
MICHIGAN CITY    0300            53   30/  9/ 10   N/A
$$

ABBREVIATIONS USED IN REMARKS
   TC - TEMPERATURE IN CELSIUS
  WCI - WIND CHILL INDEX
   HX - HEAT INDEX
  VSB - VISIBILITY
$$



USA.gov is the U.S. government's official web portal to all federal, state and local government web resources and services.